YUZGU 11 (RS5S)

Last updated on Sat Jan 28 2023 00:02:07 GMT+0000 (Coordinated Universal Time)

1 53310U 98067TV 23027.27845016 .04213601 11933-4 14934-2 0 9990 2 53310 51.6198 285.8556 0007857 221.4703 138.5721 16.24219088 29738

Satellite not in orbit